Weather in Ksamil

Albania     39°46′08″N   20°00′00″E
temp.,
°C
wind,
m/s
gust,
m/s
humid.,
%
clouds,
%
prec.,
mm/h
press.,
hPa
HPBL,
m
17 april, sat
sat1723:00+12ene346996 0.0 1011107
02:00+12ene33677 0.0 1010106
05:00+11ene3371100 0.0 1008113
08:00+13ene3468100 0.0 1008188
11:00+16s326091 0.0 1008468
14:00+15nnw2265100 0.0 1008184
17:00+14nnw5583100 0.1 1008339
20:00+14nw4485100 0.1 1008234
18 april, sun
sun1823:00+13wnw3394100 1.4 1011273
02:00+13wnw3492100 3.7 1011340
05:00+13w338446 0.1 1012228
08:00+13w227945 0.1 1013366
11:00+15wnw33697 0.0 1015683
14:00+15nw55675 0.0 1016596
17:00+15nw55605 0.0 1014457
20:00+13nw33655 0.0 1015269
19 april, mon
mon1923:00+13nnw23685 0.0 1015261
02:00+12se006899 0.0 1015229
05:00+13n116796 0.0 1013202
08:00+13sse2367100 0.1 1013391
11:00+14s5569100 2.8 1013696
14:00+15ssw456659 5.7 1012968
17:00+15s3360100 2.6 1011758
20:00+13wnw2369100 4.4 1011372
20 april, tue
tue2023:00+12wnw57755 2.3 1013472
02:00+12nw56730 2.6 1013592
05:00+11nnw34751 0.0 1014505
08:00+12nw126816 0.1 1016482
11:00+14nw34659 0.4 10171033
14:00+14nw55616 0.6 10171013
17:00+14nw33605 0.1 1017789
20:00+12n11651 0.1 1018349
21 april, wed
wed2123:00+12ese116589 0.0 1019283
02:00+11ese226965 0.0 1019216
05:00+11ese226982 0.0 1019185
08:00+12ese226276 0.0 1020239
11:00+14s4466100 0.0 1020620
14:00+15sse556768 0.2 1020779
17:00+16sse546517 0.0 1020710
20:00+14sse457446 0.0 1020400